Weather in Novotroitske

Ukraine / Donetsk Region     48°34′43″N   37°13′05″E
temp.,
°C
wind,
m/s
gust,
m/s
humid.,
%
clouds,
%
prec.,
mm/h
press.,
hPa
HPBL,
m
25 february, thu
thu2523:00−6ssw4632100 0.0 1037405
02:00−7ssw5836100 0.0 1036431
05:00−7ssw584599 0.0 1034360
08:00−6sw585799 0.0 1033341
11:00−4sw61068100 0.0 1032400
14:00−1wsw6106799 0.0 1030430
17:00−1wsw71184100 0.0 1027284
20:000wsw81293100 0.0 1027267
26 february, fri
fri2623:00+1wsw71298100 0.1 1026276
02:00+2wsw61198100 0.2 1025245
05:00+3w4999100 0.0 1024189
08:00+2w4898100 0.0 1023204
11:00+4w5797100 0.0 1023219
14:00+5wsw61194100 0.0 1021454
17:00+4wsw6119683 0.0 1020418
20:00+3wsw6119791 0.0 1019403
27 february, sat
sat2723:00+3w5997100 0.0 1017320
02:00+3w4998100 0.0 1016249
05:00+3w4997100 0.0 1014275
08:00+3w4997100 0.1 1014273
11:00+3w4898100 2.1 1013373
14:00+3w5997100 2.4 1012386
17:00+3wnw41090100 0.1 1013367
20:00+2wnw4991100 0.2 1013339
28 february, sun
sun2823:00+1nw589685 0.0 1013447
02:00+1nw479792 0.1 1014401
05:00+1nnw489595 0.1 1015492
08:00+1nnw589095 0.2 1016564
11:00+2nnw677182 0.1 10171031
14:00+3nnw676991 0.1 10181050
17:00+1nnw478499 0.1 1019492
20:000nnw488696 0.1 1021551
1 march, mon
mon123:00−1nnw368878 0.0 1022515
02:00−1nnw258780 0.0 1023216
05:00−2n118575 0.0 102446
08:00−1wsw118578 0.1 1025246
11:00+1ne337899 1.0 1026568
14:00+2n445897 1.1 10271147
17:00−1n346987 0.0 1028100
20:00−2nne237652 0.0 103048